Back to Top

Language: 

My Weather Underground Personal Weather Station Historical Data with Graphs...

Delerius Weather Station Historical Data
Daily Summary for February 25, 2017 Units:  Metric    English   Both
« Previous Day
Next Day »
Daily Weekly Monthly Yearly Custom
  High: Low: Average:
Temperature: 10.8 °C 6.1 °C 9.1 °C
Dew Point: 8.3 °C 2.7 °C 6.7 °C
Humidity: 93 % 77 % 85 %
Wind Speed: 33.8 km/h 6.4 km/h 21.9 km/h
Wind Gust: 51.5 km/h - -
Wind:- - SW
Pressure: 1013.1 hPa 1001.6 hPa -
Precipitation: 1.02 mm    
Historical Graphs
 
 
Tabular Data for February 25, 2017
Time Temperature Dew Point Pressure Wind Wind Speed Wind Gust Humidity Rainfall Rate (Hourly) solar Conditions
00:00 6.4 °C 2.7 °C 1013.1 hPa SSW 14.5 km/h 25.7 km/h 77 % 0 mm 0 W/m2
00:05 6.4 °C 2.7 °C 1013.1 hPa South 14.5 km/h 25.7 km/h 77 % 0 mm 0 W/m2
00:15 6.4 °C 2.7 °C 1013.1 hPa SSW 16.1 km/h 22.5 km/h 77 % 0 mm 0 W/m2
00:20 6.4 °C 2.8 °C 1012.8 hPa South 12.9 km/h 12.9 km/h 78 % 0 mm 0 W/m2
00:30 6.4 °C 3 °C 1012.8 hPa SSW 14.5 km/h 20.9 km/h 79 % 0 mm 0 W/m2
00:35 6.4 °C 3.1 °C 1012.4 hPa SSW 16.1 km/h 22.5 km/h 79 % 0 mm 0 W/m2
00:40 6.5 °C 3.3 °C 1012.4 hPa SSW 17.7 km/h 17.7 km/h 80 % 0 mm 0 W/m2
00:45 6.5 °C 3.5 °C 1012.4 hPa SW 17.7 km/h 17.7 km/h 81 % 0 mm 0 W/m2
00:50 6.6 °C 3.5 °C 1012.1 hPa SW 17.7 km/h 25.7 km/h 81 % 0 mm 0 W/m2
00:55 6.6 °C 3.7 °C 1012.1 hPa SSW 17.7 km/h 25.7 km/h 82 % 0 mm 0 W/m2
01:05 6.5 °C 4.2 °C 1012.1 hPa SSW 19.3 km/h 29 km/h 85 % 0 mm 0 W/m2
01:10 6.3 °C 4.2 °C 1012.4 hPa SW 20.9 km/h 20.9 km/h 86 % 0 mm 0 W/m2
01:15 6.3 °C 4.3 °C 1012.4 hPa SSW 19.3 km/h 25.7 km/h 87 % 0 mm 0 W/m2
01:20 6.3 °C 4.4 °C 1012.4 hPa SSW 17.7 km/h 17.7 km/h 88 % 0 mm 0 W/m2
01:25 6.2 °C 4.4 °C 1012.1 hPa SSE 16.1 km/h 29 km/h 88 % 0 mm 0 W/m2
01:30 6.2 °C 4.4 °C 1012.1 hPa South 16.1 km/h 16.1 km/h 88 % 0 mm 0 W/m2
01:35 6.2 °C 4.4 °C 1012.1 hPa South 14.5 km/h 25.7 km/h 88 % 0 mm 0 W/m2
01:40 6.2 °C 4.4 °C 1012.1 hPa SSE 14.5 km/h 14.5 km/h 88 % 0 mm 0 W/m2
01:45 6.2 °C 4.4 °C 1011.7 hPa ESE 14.5 km/h 19.3 km/h 88 % 0 mm 0 W/m2
01:55 6.2 °C 4.3 °C 1011.1 hPa South 17.7 km/h 17.7 km/h 88 % 0 mm 0 W/m2
02:00 6.2 °C 4.5 °C 1011.1 hPa SSE 16.1 km/h 16.1 km/h 89 % 0 mm 0 W/m2
02:05 6.1 °C 4.4 °C 1010.7 hPa South 14.5 km/h 20.9 km/h 89 % 0 mm 0 W/m2
02:10 6.1 °C 4.4 °C 1010.7 hPa South 12.9 km/h 12.9 km/h 89 % 0 mm 0 W/m2
02:15 6.1 °C 4.6 °C 1010.4 hPa South 12.9 km/h 25.7 km/h 90 % 0 mm 0 W/m2
02:20 6.1 °C 4.6 °C 1010.4 hPa South 12.9 km/h 25.7 km/h 90 % 0 mm 0 W/m2
02:25 6.1 °C 4.7 °C 1010.4 hPa SSE 11.3 km/h 25.7 km/h 91 % 1.52 mm 0 W/m2
02:30 6.1 °C 4.7 °C 1010 hPa SSE 11.3 km/h 11.3 km/h 91 % 1.52 mm 0 W/m2
02:40 6.2 °C 4.9 °C 1010.4 hPa SSW 9.7 km/h 9.7 km/h 91 % 0 mm 0 W/m2
02:45 6.3 °C 5.1 °C 1010.4 hPa SSE 6.4 km/h 25.7 km/h 92 % 0 mm 0 W/m2
02:55 6.4 °C 5.1 °C 1010.4 hPa SW 8 km/h 25.7 km/h 91 % 0 mm 0 W/m2
03:00 6.6 °C 5.2 °C 1010 hPa SW 14.5 km/h 25.7 km/h 91 % 0 mm 0 W/m2
03:05 6.7 °C 5.3 °C 1010 hPa SSW 16.1 km/h 25.7 km/h 91 % 0 mm 0 W/m2
03:15 6.8 °C 5.3 °C 1009.4 hPa SSW 19.3 km/h 19.3 km/h 90 % 0 mm 0 W/m2
03:20 6.9 °C 5.4 °C 1009.4 hPa SSW 17.7 km/h 25.7 km/h 90 % 0 mm 0 W/m2
03:25 7 °C 5.4 °C 1009.4 hPa SW 17.7 km/h 25.7 km/h 90 % 0 mm 0 W/m2
03:30 7.2 °C 5.6 °C 1009.4 hPa SW 20.9 km/h 32.2 km/h 90 % 0 mm 0 W/m2
03:35 7.2 °C 5.7 °C 1009.4 hPa SSW 20.9 km/h 32.2 km/h 90 % 0 mm 0 W/m2
03:45 7.3 °C 5.6 °C 1009 hPa South 17.7 km/h 25.7 km/h 89 % 0 mm 0 W/m2
03:50 7.3 °C 5.7 °C 1008.7 hPa SW 19.3 km/h 25.7 km/h 89 % 0 mm 0 W/m2
03:55 7.4 °C 5.7 °C 1008.7 hPa SW 19.3 km/h 25.7 km/h 89 % 0 mm 0 W/m2
04:00 7.4 °C 5.7 °C 1008.7 hPa SW 16.1 km/h 16.1 km/h 89 % 0 mm 0 W/m2
04:05 7.4 °C 5.7 °C 1008.7 hPa West 14.5 km/h 25.7 km/h 89 % 0 mm 0 W/m2
04:10 7.5 °C 5.8 °C 1009 hPa SW 14.5 km/h 30.6 km/h 89 % 0 mm 0 W/m2
04:20 7.6 °C 5.7 °C 1008.7 hPa West 22.5 km/h 25.7 km/h 88 % 0 mm 0 W/m2
04:25 7.7 °C 5.8 °C 1008.7 hPa West 22.5 km/h 25.7 km/h 88 % 0 mm 0 W/m2
04:30 7.7 °C 5.7 °C 1008.7 hPa WSW 22.5 km/h 25.7 km/h 87 % 0 mm 0 W/m2
04:35 7.8 °C 5.7 °C 1008.7 hPa WSW 22.5 km/h 25.7 km/h 87 % 0 mm 0 W/m2
04:40 7.8 °C 5.8 °C 1008.7 hPa SW 24.1 km/h 24.1 km/h 87 % 0 mm 0 W/m2
04:45 7.8 °C 5.8 °C 1008.7 hPa SSW 22.5 km/h 25.7 km/h 87 % 0 mm 0 W/m2
04:50 7.8 °C 5.7 °C 1008.7 hPa SW 19.3 km/h 19.3 km/h 87 % 0 mm 0 W/m2
05:00 7.9 °C 5.8 °C 1008.4 hPa WSW 20.9 km/h 25.7 km/h 87 % 0 mm 0 W/m2
05:05 7.9 °C 5.7 °C 1008.4 hPa SW 20.9 km/h 29 km/h 86 % 0 mm 0 W/m2
05:10 8 °C 5.8 °C 1008 hPa SSW 24.1 km/h 24.1 km/h 86 % 0 mm 0 W/m2
05:15 8 °C 5.8 °C 1007.7 hPa SW 24.1 km/h 35.4 km/h 86 % 0 mm 0 W/m2
05:25 8 °C 5.8 °C 1007.7 hPa WSW 25.7 km/h 29 km/h 86 % 0 mm 0 W/m2
05:30 8 °C 5.8 °C 1007.3 hPa SW 25.7 km/h 25.7 km/h 86 % 0 mm 0 W/m2
05:35 8 °C 5.8 °C 1007.3 hPa SW 24.1 km/h 25.7 km/h 86 % 0 mm 0 W/m2
05:40 8.1 °C 5.8 °C 1007 hPa SW 24.1 km/h 24.1 km/h 86 % 0 mm 0 W/m2
05:45 8.1 °C 5.9 °C 1007 hPa SSW 22.5 km/h 25.7 km/h 86 % 0 mm 0 W/m2
05:55 8.2 °C 5.8 °C 1007 hPa SW 24.1 km/h 30.6 km/h 85 % 0 mm 0 W/m2
06:00 8.2 °C 5.8 °C 1007 hPa SW 24.1 km/h 40.2 km/h 85 % 0 mm 0 W/m2
06:05 8.2 °C 5.8 °C 1006.7 hPa SW 22.5 km/h 40.2 km/h 85 % 0 mm 0 W/m2
06:10 8.2 °C 5.7 °C 1006.7 hPa SW 22.5 km/h 30.6 km/h 84 % 0 mm 0 W/m2
06:15 8.2 °C 5.7 °C 1006.3 hPa SW 25.7 km/h 33.8 km/h 84 % 0 mm 0 W/m2
06:20 8.2 °C 5.7 °C 1006 hPa SW 25.7 km/h 25.7 km/h 84 % 0 mm 0 W/m2
06:30 8.1 °C 5.6 °C 1006 hPa SW 25.7 km/h 35.4 km/h 84 % 0 mm 0 W/m2
06:35 8.2 °C 5.6 °C 1006.3 hPa SW 27.4 km/h 43.5 km/h 84 % 0 mm 0 W/m2
06:40 8.2 °C 5.5 °C 1006 hPa SSW 30.6 km/h 30.6 km/h 83 % 0 mm 0 W/m2
06:45 8.2 °C 5.5 °C 1006 hPa SSW 30.6 km/h 30.6 km/h 83 % 0 mm 0 W/m2
06:50 8.3 °C 5.6 °C 1005.6 hPa SSW 30.6 km/h 37 km/h 83 % 0 mm 0 W/m2
07:00 8.3 °C 5.6 °C 1006 hPa SSW 30.6 km/h 33.8 km/h 83 % 0 mm 0 W/m2
07:05 8.3 °C 5.6 °C 1005.6 hPa SW 30.6 km/h 43.5 km/h 83 % 0 mm 0 W/m2
07:10 8.3 °C 5.6 °C 1005.6 hPa SW 33.8 km/h 37 km/h 83 % 0 mm 0 W/m2
07:15 8.3 °C 5.6 °C 1006 hPa SSW 33.8 km/h 37 km/h 83 % 0 mm 7 W/m2
07:20 8.3 °C 5.6 °C 1006 hPa SW 30.6 km/h 30.6 km/h 83 % 0 mm 11 W/m2
07:25 8.3 °C 5.6 °C 1006 hPa WSW 29 km/h 30.6 km/h 83 % 0 mm 12 W/m2
07:35 8.4 °C 5.7 °C 1006 hPa SW 25.7 km/h 32.2 km/h 83 % 0 mm 21 W/m2
07:40 8.5 °C 5.6 °C 1006 hPa SW 30.6 km/h 40.2 km/h 82 % 0 mm 25 W/m2
07:45 8.6 °C 5.7 °C 1006 hPa WSW 32.2 km/h 40.2 km/h 82 % 0 mm 30 W/m2
07:50 8.6 °C 5.6 °C 1006 hPa SW 30.6 km/h 51.5 km/h 81 % 0 mm 37 W/m2
07:55 8.7 °C 5.7 °C 1006.3 hPa SW 32.2 km/h 51.5 km/h 81 % 0 mm 42 W/m2
08:10 8.8 °C 5.7 °C 1006 hPa WSW 29 km/h 40.2 km/h 81 % 0 mm 47 W/m2
08:15 8.9 °C 5.8 °C 1006 hPa SW 30.6 km/h 40.2 km/h 81 % 0 mm 51 W/m2
08:20 8.9 °C 5.8 °C 1006 hPa WSW 30.6 km/h 32.2 km/h 81 % 0 mm 49 W/m2
08:25 8.9 °C 5.8 °C 1006 hPa SW 29 km/h 32.2 km/h 81 % 0 mm 56 W/m2
08:30 8.9 °C 5.8 °C 1006 hPa WSW 29 km/h 29 km/h 81 % 0 mm 65 W/m2
08:40 9 °C 5.9 °C 1005.6 hPa WSW 30.6 km/h 30.6 km/h 81 % 0 mm 83 W/m2
08:45 9 °C 5.9 °C 1006 hPa WSW 29 km/h 30.6 km/h 81 % 0 mm 72 W/m2
08:50 9.1 °C 5.9 °C 1005.6 hPa SW 29 km/h 29 km/h 81 % 0 mm 86 W/m2
08:55 9.1 °C 6 °C 1005.6 hPa South 32.2 km/h 32.2 km/h 81 % 0 mm 102 W/m2
09:00 9.1 °C 6 °C 1006 hPa SW 32.2 km/h 32.2 km/h 81 % 0 mm 95 W/m2
09:10 9.2 °C 5.9 °C 1006.3 hPa SW 32.2 km/h 32.2 km/h 80 % 0 mm 84 W/m2
09:15 9.3 °C 6 °C 1006.3 hPa SW 32.2 km/h 32.2 km/h 80 % 0 mm 76 W/m2
09:20 9.3 °C 6.1 °C 1006.3 hPa SW 32.2 km/h 48.3 km/h 80 % 0 mm 69 W/m2
09:25 9.3 °C 6 °C 1006.3 hPa SW 32.2 km/h 48.3 km/h 80 % 0 mm 54 W/m2
09:30 9.3 °C 6.1 °C 1006.3 hPa SW 32.2 km/h 32.2 km/h 80 % 0 mm 65 W/m2
09:35 9.3 °C 6.1 °C 1006 hPa SW 29 km/h 32.2 km/h 80 % 0 mm 47 W/m2
09:45 9.3 °C 6.2 °C 1006 hPa WSW 27.4 km/h 32.2 km/h 81 % 0 mm 65 W/m2
09:50 9.3 °C 6.2 °C 1005.6 hPa WSW 27.4 km/h 27.4 km/h 81 % 0 mm 62 W/m2
09:55 9.2 °C 6.1 °C 1006 hPa SW 25.7 km/h 29 km/h 81 % 0 mm 74 W/m2
10:00 9.3 °C 6.2 °C 1006 hPa WSW 27.4 km/h 35.4 km/h 81 % 0 mm 83 W/m2
10:05 9.2 °C 6.3 °C 1006 hPa WSW 29 km/h 35.4 km/h 82 % 0 mm 72 W/m2
10:15 9.1 °C 6.4 °C 1005.6 hPa WSW 29 km/h 29 km/h 83 % 0 mm 42 W/m2
10:20 9.1 °C 6.4 °C 1005.6 hPa WSW 29 km/h 37 km/h 83 % 0 mm 47 W/m2
10:25 9.2 °C 6.4 °C 1005.6 hPa SSW 30.6 km/h 37 km/h 83 % 0 mm 56 W/m2
10:30 9.2 °C 6.5 °C 1005.3 hPa SW 32.2 km/h 49.9 km/h 83 % 0 mm 56 W/m2
10:40 9.2 °C 6.5 °C 1005.3 hPa SW 27.4 km/h 27.4 km/h 83 % 0 mm 67 W/m2
10:45 9.2 °C 6.4 °C 1005.3 hPa West 30.6 km/h 35.4 km/h 83 % 0 mm 84 W/m2
10:55 9.2 °C 6.7 °C 1005 hPa SW 25.7 km/h 33.8 km/h 84 % 0 mm 104 W/m2
11:00 9.3 °C 6.8 °C 1005 hPa SW 27.4 km/h 30.6 km/h 84 % 0 mm 116 W/m2
11:05 9.4 °C 6.7 °C 1005 hPa WSW 29 km/h 30.6 km/h 83 % 0 mm 95 W/m2
11:10 9.4 °C 6.7 °C 1005 hPa SW 30.6 km/h 30.6 km/h 83 % 0 mm 74 W/m2
11:15 9.4 °C 6.7 °C 1005.3 hPa SW 33.8 km/h 33.8 km/h 83 % 0 mm 83 W/m2
11:25 9.5 °C 6.8 °C 1005.3 hPa SW 33.8 km/h 37 km/h 83 % 0 mm 139 W/m2
11:30 9.5 °C 6.8 °C 1005.3 hPa SW 29 km/h 33.8 km/h 83 % 0 mm 178 W/m2
11:35 9.6 °C 6.9 °C 1005 hPa SW 25.7 km/h 33.8 km/h 83 % 0 mm 153 W/m2
11:40 9.7 °C 6.9 °C 1005.3 hPa SW 24.1 km/h 24.1 km/h 83 % 0 mm 120 W/m2
11:45 9.7 °C 7 °C 1005 hPa SW 22.5 km/h 29 km/h 83 % 0 mm 88 W/m2
11:55 9.8 °C 6.8 °C 1005 hPa SW 22.5 km/h 22.5 km/h 82 % 0 mm 93 W/m2
12:00 9.8 °C 6.9 °C 1005 hPa WSW 25.7 km/h 29 km/h 82 % 0 mm 102 W/m2
12:05 9.9 °C 6.9 °C 1005 hPa SW 25.7 km/h 29 km/h 82 % 0 mm 67 W/m2
12:15 9.9 °C 6.9 °C 1005 hPa SSW 22.5 km/h 25.7 km/h 82 % 0 mm 70 W/m2
12:20 9.9 °C 6.9 °C 1004.6 hPa SSW 19.3 km/h 19.3 km/h 82 % 0 mm 76 W/m2
12:30 9.9 °C 7 °C 1005 hPa SW 22.5 km/h 30.6 km/h 82 % 0 mm 47 W/m2
12:35 10 °C 7.1 °C 1005 hPa SW 22.5 km/h 30.6 km/h 82 % 0 mm 56 W/m2
12:40 10 °C 7.1 °C 1004.6 hPa SSW 20.9 km/h 25.7 km/h 82 % 0 mm 67 W/m2
12:45 10 °C 7.1 °C 1005 hPa WSW 19.3 km/h 25.7 km/h 82 % 0 mm 58 W/m2
12:50 10.1 °C 7.1 °C 1004.6 hPa SSE 17.7 km/h 17.7 km/h 82 % 0 mm 63 W/m2
12:55 10.1 °C 7.2 °C 1004.6 hPa WSW 14.5 km/h 25.7 km/h 82 % 0 mm 105 W/m2
13:00 10.2 °C 7.2 °C 1004.6 hPa SW 12.9 km/h 29 km/h 82 % 0 mm 97 W/m2
13:05 10.3 °C 7.3 °C 1004.6 hPa SW 14.5 km/h 29 km/h 82 % 0 mm 135 W/m2
13:10 10.4 °C 7.4 °C 1004.3 hPa WSW 17.7 km/h 17.7 km/h 82 % 0 mm 186 W/m2
13:15 10.5 °C 7.6 °C 1004.3 hPa WSW 19.3 km/h 19.3 km/h 82 % 0 mm 209 W/m2
13:20 10.6 °C 7.7 °C 1004.3 hPa SSW 17.7 km/h 25.7 km/h 82 % 0 mm 178 W/m2
13:30 10.7 °C 7.6 °C 1004.3 hPa SSW 24.1 km/h 32.2 km/h 81 % 0 mm 137 W/m2
13:40 10.7 °C 7.6 °C 1004.3 hPa SW 25.7 km/h 25.7 km/h 81 % 0 mm 169 W/m2
13:45 10.8 °C 7.7 °C 1003.9 hPa WSW 24.1 km/h 25.7 km/h 81 % 0 mm 114 W/m2
13:50 10.7 °C 7.6 °C 1004.3 hPa WSW 20.9 km/h 20.9 km/h 81 % 0 mm 95 W/m2
13:55 10.7 °C 7.8 °C 1003.9 hPa SW 20.9 km/h 25.7 km/h 82 % 0 mm 139 W/m2
14:00 10.7 °C 7.9 °C 1004.3 hPa South 19.3 km/h 25.7 km/h 83 % 0 mm 105 W/m2
14:10 10.5 °C 7.9 °C 1003.9 hPa WSW 20.9 km/h 25.7 km/h 84 % 0 mm 100 W/m2
14:15 10.3 °C 7.9 °C 1003.9 hPa WSW 19.3 km/h 25.7 km/h 85 % 0 mm 91 W/m2
14:20 10.3 °C 7.9 °C 1003.9 hPa SSW 19.3 km/h 25.7 km/h 85 % 0 mm 109 W/m2
14:25 10.2 °C 7.8 °C 1003.6 hPa South 20.9 km/h 25.7 km/h 85 % 0 mm 109 W/m2
14:30 10.2 °C 8 °C 1003.9 hPa West 22.5 km/h 22.5 km/h 86 % 0 mm 88 W/m2
14:35 10.2 °C 7.9 °C 1003.6 hPa SW 20.9 km/h 25.7 km/h 86 % 0 mm 70 W/m2
14:45 10.1 °C 7.9 °C 1003.6 hPa SW 19.3 km/h 30.6 km/h 86 % 0 mm 86 W/m2
14:50 10.1 °C 8.1 °C 1003.6 hPa SW 20.9 km/h 35.4 km/h 87 % 0 mm 84 W/m2
15:00 10.2 °C 8.2 °C 1003.3 hPa SW 22.5 km/h 22.5 km/h 87 % 0 mm 156 W/m2
15:05 10.3 °C 8.2 °C 1003.3 hPa SW 24.1 km/h 38.6 km/h 87 % 0 mm 186 W/m2
15:10 10.3 °C 8.1 °C 1003.3 hPa WSW 25.7 km/h 30.6 km/h 86 % 0 mm 190 W/m2
15:20 10.5 °C 8.3 °C 1003.3 hPa SW 22.5 km/h 22.5 km/h 86 % 0 mm 95 W/m2
15:25 10.4 °C 8.2 °C 1003.3 hPa WSW 20.9 km/h 25.7 km/h 86 % 0 mm 86 W/m2
15:30 10.2 °C 8.1 °C 1002.9 hPa SW 25.7 km/h 25.7 km/h 87 % 0 mm 100 W/m2
15:35 10.1 °C 8.2 °C 1002.9 hPa SW 25.7 km/h 25.7 km/h 88 % 0 mm 97 W/m2
15:40 10.1 °C 8.2 °C 1002.9 hPa SW 22.5 km/h 25.7 km/h 88 % 0 mm 91 W/m2
15:50 10.2 °C 8.3 °C 1002.9 hPa SW 22.5 km/h 22.5 km/h 88 % 0 mm 76 W/m2
15:55 10.3 °C 8.2 °C 1002.9 hPa SW 22.5 km/h 25.7 km/h 87 % 0 mm 79 W/m2
16:00 10.3 °C 8.2 °C 1002.9 hPa SW 20.9 km/h 20.9 km/h 87 % 0 mm 74 W/m2
16:05 10.3 °C 8.2 °C 1002.9 hPa West 17.7 km/h 29 km/h 87 % 0 mm 70 W/m2
16:10 10.3 °C 8.3 °C 1002.9 hPa SW 20.9 km/h 20.9 km/h 87 % 0 mm 53 W/m2
16:15 10.4 °C 8.2 °C 1002.9 hPa WSW 22.5 km/h 22.5 km/h 86 % 0 mm 44 W/m2
16:25 10.4 °C 8.2 °C 1002.9 hPa SW 20.9 km/h 38.6 km/h 86 % 0 mm 30 W/m2
16:30 10.4 °C 8.2 °C 1002.9 hPa SSW 22.5 km/h 38.6 km/h 86 % 0 mm 39 W/m2
16:35 10.4 °C 8.2 °C 1002.9 hPa WSW 22.5 km/h 38.6 km/h 86 % 0 mm 39 W/m2
16:40 10.4 °C 8.2 °C 1002.9 hPa SW 22.5 km/h 22.5 km/h 86 % 0 mm 37 W/m2
16:45 10.4 °C 8.3 °C 1002.9 hPa SSW 20.9 km/h 38.6 km/h 87 % 0 mm 33 W/m2
16:55 10.4 °C 8.2 °C 1002.9 hPa SW 24.1 km/h 25.7 km/h 86 % 0 mm 35 W/m2
17:00 10.4 °C 8.3 °C 1002.6 hPa WSW 19.3 km/h 19.3 km/h 87 % 0 mm 33 W/m2
17:05 10.3 °C 8.1 °C 1002.6 hPa West 19.3 km/h 25.7 km/h 86 % 0 mm 35 W/m2
17:10 10.3 °C 8.3 °C 1002.6 hPa SW 20.9 km/h 20.9 km/h 87 % 0 mm 23 W/m2
17:20 10.3 °C 8.1 °C 1002.6 hPa SSW 14.5 km/h 25.7 km/h 86 % 0 mm 9 W/m2
17:25 10.3 °C 8.1 °C 1002.6 hPa SSW 16.1 km/h 25.7 km/h 86 % 0 mm 9 W/m2
17:35 10.3 °C 8.1 °C 1002.6 hPa SSW 22.5 km/h 25.7 km/h 86 % 0 mm 9 W/m2
17:40 10.3 °C 8.1 °C 1002.6 hPa WSW 20.9 km/h 20.9 km/h 86 % 0 mm 7 W/m2
17:45 10.2 °C 8 °C 1002.6 hPa SW 19.3 km/h 25.7 km/h 86 % 0 mm 5 W/m2
17:50 10.2 °C 8 °C 1002.6 hPa SW 22.5 km/h 29 km/h 86 % 0 mm 0 W/m2
17:55 10.2 °C 8 °C 1002.3 hPa SW 24.1 km/h 29 km/h 86 % 0 mm 0 W/m2
18:05 10.3 °C 8.1 °C 1002.3 hPa SSW 29 km/h 46.7 km/h 86 % 0 mm 0 W/m2
18:10 10.3 °C 8.1 °C 1002.3 hPa SW 30.6 km/h 30.6 km/h 86 % 0 mm 0 W/m2
18:15 10.3 °C 8.1 °C 1002.3 hPa WSW 32.2 km/h 32.2 km/h 86 % 0 mm 0 W/m2
18:20 10.4 °C 8 °C 1002.3 hPa SW 32.2 km/h 32.2 km/h 85 % 0 mm 0 W/m2
18:25 10.4 °C 8.1 °C 1002.3 hPa SSW 29 km/h 32.2 km/h 85 % 0 mm 0 W/m2
18:35 10.5 °C 8.1 °C 1001.9 hPa SW 25.7 km/h 38.6 km/h 85 % 0 mm 0 W/m2
18:40 10.5 °C 8.1 °C 1001.9 hPa SW 27.4 km/h 30.6 km/h 85 % 0 mm 0 W/m2
18:45 10.4 °C 8 °C 1001.6 hPa SW 25.7 km/h 30.6 km/h 85 % 0 mm 0 W/m2
18:55 10.4 °C 8 °C 1001.6 hPa SW 30.6 km/h 35.4 km/h 85 % 0 mm 0 W/m2
19:00 10.4 °C 8.1 °C 1001.6 hPa SW 29 km/h 29 km/h 85 % 0 mm 0 W/m2
19:10 10.5 °C 7.9 °C 1001.9 hPa SW 29 km/h 32.2 km/h 84 % 0 mm 0 W/m2
19:15 10.5 °C 8.1 °C 1001.9 hPa WSW 27.4 km/h 32.2 km/h 85 % 0 mm 0 W/m2
19:20 10.5 °C 8.1 °C 1002.3 hPa SW 25.7 km/h 25.7 km/h 85 % 0 mm 0 W/m2
19:25 10.5 °C 8.1 °C 1002.6 hPa WSW 20.9 km/h 25.7 km/h 85 % 0 mm 0 W/m2
19:30 10.6 °C 8.1 °C 1002.6 hPa WSW 17.7 km/h 17.7 km/h 85 % 0 mm 0 W/m2
19:35 10.6 °C 8.1 °C 1002.9 hPa SW 16.1 km/h 25.7 km/h 85 % 0 mm 0 W/m2
19:45 10.7 °C 8.2 °C 1003.3 hPa WSW 19.3 km/h 25.7 km/h 85 % 0 mm 0 W/m2
19:50 10.7 °C 8.1 °C 1003.3 hPa SSW 19.3 km/h 19.3 km/h 84 % 0 mm 0 W/m2
19:55 10.7 °C 8.1 °C 1003.6 hPa West 20.9 km/h 20.9 km/h 84 % 0 mm 0 W/m2
20:00 10.7 °C 8.1 °C 1003.6 hPa WSW 22.5 km/h 22.5 km/h 84 % 0 mm 0 W/m2
20:05 10.7 °C 8.1 °C 1003.3 hPa SW 17.7 km/h 25.7 km/h 84 % 0 mm 0 W/m2
20:15 10.6 °C 8.2 °C 1003.3 hPa South 17.7 km/h 25.7 km/h 85 % 0 mm 0 W/m2
20:20 10.6 °C 8.1 °C 1003.3 hPa SSW 16.1 km/h 16.1 km/h 85 % 0 mm 0 W/m2
20:30 10.4 °C 8.1 °C 1002.9 hPa SSE 14.5 km/h 14.5 km/h 85 % 0 mm 0 W/m2
20:35 10.4 °C 8.2 °C 1002.9 hPa SSW 14.5 km/h 25.7 km/h 86 % 0 mm 0 W/m2
20:40 10.4 °C 8.2 °C 1003.3 hPa SSW 14.5 km/h 14.5 km/h 86 % 0 mm 0 W/m2
20:50 10.3 °C 8.1 °C 1003.3 hPa SW 11.3 km/h 25.7 km/h 86 % 0 mm 0 W/m2
20:55 10.3 °C 8.2 °C 1003.3 hPa South 11.3 km/h 25.7 km/h 87 % 0 mm 0 W/m2
21:00 10.2 °C 8.2 °C 1003.3 hPa SSW 11.3 km/h 25.7 km/h 87 % 0 mm 0 W/m2
21:05 10.2 °C 8.1 °C 1003.3 hPa SSW 12.9 km/h 25.7 km/h 87 % 0 mm 0 W/m2
21:10 10.2 °C 8.1 °C 1003.3 hPa SW 14.5 km/h 25.7 km/h 87 % 0 mm 0 W/m2
21:15 10.2 °C 8.1 °C 1002.9 hPa SSW 16.1 km/h 25.7 km/h 87 % 0 mm 0 W/m2
21:25 10.2 °C 8.2 °C 1002.6 hPa SW 20.9 km/h 25.7 km/h 87 % 0 mm 0 W/m2
21:30 10.2 °C 8.2 °C 1002.3 hPa SSW 22.5 km/h 29 km/h 87 % 0 mm 0 W/m2
21:35 10.2 °C 8.2 °C 1002.3 hPa SSW 24.1 km/h 29 km/h 87 % 0 mm 0 W/m2
21:40 10.2 °C 8.2 °C 1002.3 hPa SW 25.7 km/h 25.7 km/h 87 % 0 mm 0 W/m2
21:45 10.2 °C 8.2 °C 1002.3 hPa SSW 24.1 km/h 25.7 km/h 87 % 0 mm 0 W/m2
21:55 10.2 °C 8.1 °C 1002.6 hPa SW 19.3 km/h 25.7 km/h 87 % 0 mm 0 W/m2
22:05 10.1 °C 8.2 °C 1002.6 hPa SSW 17.7 km/h 25.7 km/h 88 % 0 mm 0 W/m2
22:10 10.1 °C 8.2 °C 1002.6 hPa SW 17.7 km/h 25.7 km/h 88 % 0 mm 0 W/m2
22:15 10.1 °C 8.2 °C 1002.6 hPa SSW 14.5 km/h 25.7 km/h 88 % 0 mm 0 W/m2
22:20 10.1 °C 8.2 °C 1002.6 hPa SW 16.1 km/h 16.1 km/h 88 % 0 mm 0 W/m2
22:30 9.9 °C 8.2 °C 1002.3 hPa WSW 17.7 km/h 25.7 km/h 89 % 0 mm 0 W/m2
22:35 9.8 °C 8.3 °C 1002.3 hPa SW 19.3 km/h 25.7 km/h 90 % 0 mm 0 W/m2
22:40 9.7 °C 8.2 °C 1002.3 hPa SW 19.3 km/h 25.7 km/h 90 % 0 mm 0 W/m2
22:45 9.7 °C 8.3 °C 1002.3 hPa WSW 20.9 km/h 25.7 km/h 91 % 0 mm 0 W/m2
22:50 9.7 °C 8.3 °C 1002.3 hPa West 19.3 km/h 25.7 km/h 91 % 0 mm 0 W/m2
22:55 9.7 °C 8.3 °C 1002.3 hPa WSW 17.7 km/h 25.7 km/h 91 % 0 mm 0 W/m2
23:05 9.6 °C 8.2 °C 1002.3 hPa WSW 16.1 km/h 25.7 km/h 91 % 0 mm 0 W/m2
23:10 9.6 °C 8.2 °C 1002.3 hPa WSW 14.5 km/h 14.5 km/h 91 % 0 mm 0 W/m2
23:15 9.5 °C 8.3 °C 1002.3 hPa SW 12.9 km/h 25.7 km/h 92 % 0 mm 0 W/m2
23:20 9.5 °C 8.3 °C 1002.3 hPa SSW 12.9 km/h 25.7 km/h 92 % 0 mm 0 W/m2
23:30 9.4 °C 8.2 °C 1002.3 hPa SSW 12.9 km/h 25.7 km/h 92 % 0 mm 0 W/m2
23:40 9.4 °C 8.3 °C 1002.3 hPa SW 14.5 km/h 14.5 km/h 93 % 0 mm 0 W/m2
23:45 9.4 °C 8.3 °C 1002.3 hPa West 14.5 km/h 25.7 km/h 93 % 0 mm 0 W/m2
23:50 9.4 °C 8.3 °C 1002.3 hPa SW 14.5 km/h 25.7 km/h 93 % 0 mm 0 W/m2
23:55 9.4 °C 8.3 °C 1002.3 hPa SW 14.5 km/h 25.7 km/h 93 % 0 mm 0 W/m2
Delerius-Weather
Compliments of Weather Underground - 2 mb

Data updates at regular intervals.